Content
SEND FEEDBACK

Daily
Averages
Monthly
Summary
Mexico

SAN MARTINIANO, QUINTANA ROO


Home > North America > Mexico > Quintana Roo
Elevation: 49 feet     Latitude: 20 47N     Longitude: 087 16W

WEATHER
 
SELECT A DAY
Number of Records: 196,146;   Date Range: 2/21/06 - 7/20/14
 
SHARE

PRINT THIS DATA

[ ← Previous Day ]
WEATHER ALMANAC - MARCH 22, 2013
[ Next Day → ]
[ °C ]   °F
Weather ElementAverageHighLow
Temperature61.6 °F80.6 °F (2:35 pm)42.8 °F (1:55 am)
Dewpoint33.5 °F69.8 °F (6:15 pm) (7:00 pm)
Humidity63.5 %100 % (3:15 am)27 % (11:15 am)
Barometer29.98 in30.05 in (10:35 am)29.93 in (4:15 pm)
Wind Speed4.7 mph12.7 mph (2:15 pm)
Wind Gust16.1 mph (9:15 am)
Weather ElementAverage
Visibility8.5 mi
Wind DirectionENE (69.4 °)

Weather ElementTotal
Precipitation3.13 in
Heating Degree Days3.3 (Base 65)
Growing Degree Days11.7 (Base 50)
Averaged from 71 records on March 22, 2013
WEATHER CONDITIONS BREAKOUT
WIND DIRECTION BREAKOUT
WEATHER BY HOUR - MARCH 22, 2013
[ °C ]   °F
Local TimeTemperatureDewpointHumidityBarometerVisibilityWind DirectionWind SpeedGust SpeedPrecipitationEventsConditions
12:35 AM44.6 °F39.2 °F81 %29.98 in10.0 miCalmClear
12:55 AM44.6 °F39.2 °F81 %29.97 in10.0 miCalmClear
1:15 AM44.6 °F39.2 °F81 %29.97 in10.0 miCalmClear
1:35 AM44.6 °F39.2 °F81 %29.97 in10.0 miCalmClear
1:55 AM42.8 °F39.2 °F87 %29.97 in10.0 miCalmClear
2:15 AM44.6 °F41.0 °F87 %29.97 in10.0 miCalmClear
2:35 AM42.8 °F39.2 °F87 %29.96 in10.0 miCalmClear
2:55 AM42.8 °F39.2 °F87 %29.96 in10.0 miCalmClear
3:15 AM42.8 °F42.8 °F100 %29.96 in10.0 miCalmClear
3:35 AM44.6 °F41.0 °F87 %29.96 in10.0 miCalmClear
3:55 AM42.8 °F42.8 °F100 %29.96 in10.0 miCalmClear
4:15 AM42.8 °F0.0 °F29.96 in10.0 miCalmClear
4:35 AM42.8 °F42.8 °F100 %29.95 in10.0 miNE (40°)4.6 mphClear
4:55 AM42.8 °F42.8 °F100 %29.95 in10.0 miNE (40°)3.5 mphClear
5:15 AM44.6 °F42.8 °F93 %29.95 in10.0 miNE (40°)4.6 mphClear
5:35 AM46.4 °F41.0 °F81 %29.96 in10.0 miNE (40°)3.5 mphClear
5:55 AM48.2 °F41.0 °F76 %29.97 in10.0 miENE (60°)3.5 mphClear
6:15 AM48.2 °F41.0 °F76 %29.98 in10.0 miNE (40°)3.5 mphClear
6:35 AM48.2 °F41.0 °F76 %29.98 in10.0 miENE (60°)4.6 mphScattered Clouds
6:55 AM50.0 °F42.8 °F76 %29.98 in10.0 miCalmOvercast
7:15 AM50.0 °F42.8 °F76 %30.00 in10.0 miNE (40°)3.5 mphMostly Cloudy
7:35 AM50.0 °F42.8 °F76 %30.01 in10.0 miENE (60°)4.6 mphMostly Cloudy
7:55 AM50.0 °F42.8 °F76 %30.02 in10.0 miNE (50°)3.5 mphScattered Clouds
8:15 AM51.8 °F42.8 °F71 %30.02 in10.0 miNE (50°)6.9 mphClear
8:35 AM53.6 °F44.6 °F72 %30.02 in10.0 miNE (40°)6.9 mphClear
8:55 AM55.4 °F44.6 °F67 %30.02 in10.0 miENE (60°)9.2 mphScattered Clouds
9:15 AM57.2 °F42.8 °F59 %30.02 in10.0 miENE (60°)8.1 mph16.1 mphMostly Cloudy
9:35 AM60.8 °F41.0 °F48 %30.03 in10.0 miENE (60°)10.4 mphMostly Cloudy
9:55 AM62.6 °F39.2 °F42 %30.04 in10.0 miNE (50°)8.1 mphScattered Clouds
10:15 AM64.4 °F37.4 °F37 %30.04 in10.0 miENE (60°)8.1 mphMostly Cloudy
10:35 AM64.4 °F35.6 °F34 %30.05 in10.0 miENE (70°)10.4 mphScattered Clouds
10:55 AM68.0 °F33.8 °F28 %30.04 in10.0 miENE (70°)9.2 mphScattered Clouds
11:15 AM69.8 °F33.8 °F27 %30.03 in10.0 miEast (90°)10.4 mphClear
11:35 AM69.8 °F33.8 °F27 %30.03 in10.0 miEast (80°)6.9 mphClear
11:55 AM71.6 °F35.6 °F27 %30.04 in10.0 miEast (90°)6.9 mphScattered Clouds
12:15 PM71.6 °F35.6 °F27 %30.03 in10.0 miEast (100°)5.8 mphScattered Clouds
12:35 PM73.4 °F41.0 °F31 %30.02 in10.0 miEast (100°)5.8 mphScattered Clouds
12:55 PM73.4 °F42.8 °F33 %30.02 in10.0 miESE (120°)8.1 mphScattered Clouds
1:15 PM75.2 °F42.8 °F31 %30.00 in10.0 miESE (110°)4.6 mphScattered Clouds
1:35 PM77.0 °F44.6 °F32 %30.00 in10.0 miSouth (190°)8.1 mphClear
1:55 PM77.0 °F44.6 °F32 %29.98 in10.0 miSE (130°)9.2 mphClear
2:15 PM78.8 °F44.6 °F30 %29.97 in10.0 miSouth (190°)12.7 mph16.1 mphClear
2:35 PM80.6 °F46.4 °F30 %29.96 in10.0 miSouth (170°)10.4 mphClear
2:55 PM78.8 °F51.8 °F39 %29.96 in10.0 miSSW (210°)10.4 mphScattered Clouds
3:15 PM78.8 °F53.6 °F42 %29.95 in10.0 miSouth (190°)8.1 mphMostly Cloudy
3:35 PM77.0 °F55.4 °F47 %29.94 in10.0 miSSW (200°)9.2 mphOvercast
3:55 PM77.0 °F55.4 °F47 %29.94 in10.0 miSW (220°)5.8 mphOvercast
4:15 PM77.0 °F55.4 °F47 %29.93 in10.0 miSSW (200°)4.6 mphOvercast
4:35 PM75.2 °F60.8 °F61 %29.93 in5.0 miSSE (160°)6.9 mph0.01 inRainRain
4:55 PM73.4 °F64.4 °F73 %29.94 in7.0 miCalm0.02 inRainLight Rain
5:15 PM71.6 °F66.2 °F83 %29.94 in7.0 miCalmRainLight Rain
5:35 PM69.8 °F66.2 °F88 %29.95 in2.5 miCalm0.09 inRainHeavy Rain
5:55 PM69.8 °F66.2 °F88 %29.94 in10.0 miNorth (10°)3.5 mph0.09 inOvercast
6:15 PM69.8 °F69.8 °F100 %29.94 in7.0 miCalmOvercast
6:35 PM69.8 °F0.0 °F29.95 in10.0 miCalmOvercast
6:55 PM69.8 °F0.0 °F29.95 in7.0 miCalmOvercast
7:15 PM69.8 °F0.0 °F29.95 in7.0 miNE (50°)3.5 mphMostly Cloudy
7:35 PM69.8 °F0.0 °F29.96 in5.0 miCalmHaze
7:55 PM69.8 °F0.0 °F29.96 in7.0 miEast (80°)3.5 mphOvercast
8:15 PM69.8 °F0.0 °F29.96 in3.0 miNNE (20°)6.9 mph0.10 inRainHeavy Rain
8:35 PM68.0 °F0.0 °F29.97 in2.5 miNE (50°)5.8 mph0.43 inRainHeavy Rain
8:55 PM68.0 °F0.0 °F29.96 in7.0 miEast (90°)6.9 mph0.65 inOvercast
9:15 PM68.0 °F0.0 °F30.02 in2.0 miWNW (300°)6.9 mph0.11 inRainHeavy Rain
9:35 PM68.0 °F0.0 °F30.00 in1.8 miNE (50°)5.8 mph0.26 inRainHeavy Rain
9:55 PM68.0 °F0.0 °F29.99 in5.0 miEast (90°)5.8 mph0.40 inHaze
10:15 PM66.2 °F0.0 °F30.01 in7.0 miESE (110°)3.5 mph0.09 inRainLight Rain
10:35 PM66.2 °F0.0 °F30.02 in2.5 miSE (130°)6.9 mph0.19 inRainRain
10:55 PM66.2 °F0.0 °F30.02 in4.0 miEast (100°)3.5 mph0.28 inRainRain
11:15 PM66.2 °F0.0 °F30.02 in5.0 miEast (100°)4.6 mph0.06 inRainLight Rain
11:35 PM66.2 °F0.0 °F30.02 in4.0 miESE (120°)6.9 mph0.14 inRainLight Rain
11:55 PM66.2 °F0.0 °F30.01 in7.0 miEast (90°)5.8 mph0.21 inOvercast
Hourly data recorded from KPCM, located miles away from San Martiniano, Quintana Roo







STORIES FROM OUR PARTNERS